Weather History for KABR - December, 2012

Change the Weather History Date:

Friday, December 14, 2012

  Actual Average Record
Temperature  
Mean Temperature 19 °F 16 °F  
Max Temperature 27 °F 26 °F 55 °F (1998)
Min Temperature 10 °F 6 °F -30 °F (1917)
Degree Days  
Heating Degree Days 46 49  
Month to date heating degree days 578 657  
Since 1 July heating degree days 2473 2620  
Cooling Degree Days 0 0  
Month to date cooling degree days 0 0  
Year to date cooling degree days 764 525  
Moisture  
Dew Point 16 °F    
Average Humidity 87    
Maximum Humidity 92    
Minimum Humidity 81    
Precipitation  
Precipitation 0.00 in 0.01 in 0.90 in (1935)
Month to date precipitation 0.62 0.24  
Year to date precipitation 14.51 21.44  
Snow  
Snow 0.00 in - - ()
Month to date snowfall 10.8  
Since 1 July snowfall 11.4  
Snow Depth 4.00 in    
Sea Level Pressure  
Sea Level Pressure 29.90 in    
Wind  
Wind Speed 6 mph (ESE)    
Max Wind Speed 13 mph    
Max Gust Speed 16 mph    
Visibility 4 miles    
Events Fog    
T = Trace of Precipitation, MM = Missing Value Source: NWS Daily Summary

Daily Weather History Graph

Daily Weather History Graph

Search for Another Location

Airport or City:

Trip Planner

Search our weather history database for the weather conditions in past years. The results will help you decide how hot, cold, wet, or windy it might be!

Date:

Astronomy

Dec. 14, 2012 Rise Set
Actual Time 8:06 AM CST 4:50 PM CST
Civil Twilight 7:32 AM CST 5:25 PM CST
Nautical Twilight 6:54 AM CST 6:02 PM CST
Astronomical Twilight 6:18 AM CST 6:38 PM CST
Moon 9:09 AM CST (12/14) 6:48 PM CST (12/14)
Length of Visible Light 9h 52m
Length of Day
8h 44m
Waxing Crescent, 3% of the Moon is Illuminated
Dec 14
Waxing Crescent
Dec 19
First Quarter
Dec 28
Full
Jan 4
Last Quarter
Jan 11
New

Hourly Weather History & Observations

Time (CST) Temp. Windchill Dew Point Humidity Pressure Visibility Wind Dir Wind Speed Gust Speed Precip Events Conditions
12:16 AM 17.6 °F - 15.8 °F 93% 30.02 in 2.5 mi Calm Calm - N/A   Overcast
12:34 AM 17.6 °F - 15.8 °F 93% 30.02 in 1.2 mi Calm Calm - N/A   Overcast
12:43 AM 19.4 °F 12.8 °F 15.8 °F 86% 30.02 in 0.5 mi SSE 4.6 mph - N/A Fog Light Freezing Fog
12:53 AM 19.0 °F 13.9 °F 17.1 °F 92% 30.08 in 0.5 mi SSE 3.5 mph - N/A Fog Light Freezing Fog
1:01 AM 19.4 °F 14.3 °F 15.8 °F 86% 30.00 in 0.2 mi SE 3.5 mph - N/A Fog Light Freezing Fog
1:53 AM 19.9 °F 11.1 °F 18.0 °F 92% 30.06 in 0.2 mi SSE 6.9 mph - N/A Fog Light Freezing Fog
2:31 AM 21.2 °F 9.5 °F 19.4 °F 93% 29.99 in 0.5 mi SSE 11.5 mph - N/A Fog Light Freezing Fog
2:53 AM 21.0 °F 10.6 °F 19.0 °F 92% 30.05 in 0.5 mi SSE 9.2 mph - N/A Fog Light Freezing Fog
3:44 AM 21.2 °F 10.9 °F 17.6 °F 86% 29.96 in 1.0 mi SSE 9.2 mph - N/A   Mist
3:53 AM 19.9 °F 11.1 °F 17.1 °F 89% 30.02 in 1.0 mi SE 6.9 mph - N/A   Mist
4:06 AM 19.4 °F 12.8 °F 15.8 °F 86% 29.94 in 2.0 mi SE 4.6 mph - N/A   Mostly Cloudy
4:16 AM 17.6 °F 12.3 °F 15.8 °F 93% 29.94 in 3.0 mi ESE 3.5 mph - N/A   Scattered Clouds
4:53 AM 16.0 °F 10.4 °F 12.0 °F 84% 30.00 in 4.0 mi ESE 3.5 mph - N/A   Clear
5:05 AM 14.0 °F 8.2 °F 10.4 °F 86% 29.92 in 1.2 mi ENE 3.5 mph - N/A   Clear
5:08 AM 14.0 °F 8.2 °F 10.4 °F 86% 29.92 in 0.5 mi East 3.5 mph - N/A Fog Light Freezing Fog
5:22 AM 12.2 °F 6.1 °F 10.4 °F 92% 29.91 in 1.5 mi ESE 3.5 mph - N/A   Partly Cloudy
5:30 AM 14.0 °F 8.2 °F 12.2 °F 93% 29.90 in 1.0 mi East 3.5 mph - N/A   Mist
5:37 AM 14.0 °F - 10.4 °F 86% 29.90 in 0.8 mi Calm Calm - N/A   Clear
5:42 AM 14.0 °F - 10.4 °F 86% 29.90 in 1.5 mi Calm Calm - N/A   Clear
5:53 AM 14.0 °F 6.5 °F 10.4 °F 86% 29.89 in 2.0 mi SE 4.6 mph - N/A   Clear
6:04 AM 12.2 °F 2.9 °F 8.6 °F 85% 29.89 in 4.0 mi SE 5.8 mph - N/A   Clear
6:53 AM 10.9 °F - 6.1 °F 81% 29.97 in 5.0 mi Calm Calm - N/A   Haze
7:53 AM 12.0 °F 5.9 °F 8.1 °F 84% 29.96 in 6.0 mi NNW 3.5 mph - N/A   Clear
8:53 AM 10.9 °F - 8.1 °F 88% 29.97 in 4.0 mi Calm Calm - N/A   Clear
9:53 AM 16.0 °F 6.3 °F 12.9 °F 88% 29.95 in 4.0 mi SSE 6.9 mph - N/A   Clear
10:14 AM 19.4 °F 12.8 °F 15.8 °F 86% 29.87 in 2.5 mi SSE 4.6 mph - N/A   Clear
10:21 AM 19.4 °F 14.3 °F 15.8 °F 86% 29.87 in 4.0 mi South 3.5 mph - N/A   Clear
10:53 AM 21.9 °F 12.5 °F 18.0 °F 85% 29.93 in 5.0 mi South 8.1 mph - N/A   Clear
11:53 AM 25.0 °F 15.5 °F 21.0 °F 85% 29.90 in 6.0 mi SSE 9.2 mph - N/A   Clear
12:53 PM 26.1 °F 20.5 °F 21.0 °F 81% 29.85 in 6.0 mi SSE 4.6 mph - N/A   Haze
1:53 PM 25.0 °F - 19.9 °F 81% 29.82 in 6.0 mi Calm Calm - N/A   Haze
2:53 PM 27.0 °F - 21.0 °F 78% 29.80 in 6.0 mi Calm Calm - N/A   Haze
3:53 PM 25.0 °F 18.1 °F 19.0 °F 78% 29.79 in 6.0 mi NNE 5.8 mph - N/A   Haze
4:53 PM 25.0 °F 17.1 °F 19.0 °F 78% 29.78 in 6.0 mi East 6.9 mph - N/A   Haze
5:53 PM 21.9 °F 12.5 °F 17.1 °F 82% 29.77 in 8.0 mi ENE 8.1 mph - N/A   Clear
6:53 PM 19.9 °F 13.4 °F 16.0 °F 85% 29.77 in 7.0 mi ENE 4.6 mph - N/A   Clear
7:53 PM 23.0 °F 11.7 °F 18.0 °F 81% 29.75 in 8.0 mi East 11.5 mph - N/A   Clear
8:53 PM 23.0 °F 11.7 °F 18.0 °F 81% 29.75 in 7.0 mi East 11.5 mph - N/A   Clear
9:53 PM 23.0 °F 13.1 °F 18.0 °F 81% 29.73 in 7.0 mi East 9.2 mph - N/A   Clear
10:53 PM 23.0 °F 15.8 °F 19.0 °F 85% 29.70 in 6.0 mi ENE 5.8 mph - N/A   Clear
11:53 PM 24.1 °F 18.2 °F 19.9 °F 84% 29.69 in 6.0 mi North 4.6 mph - N/A   Clear